Location: Dehesa de la Cepeda
(40.6574°N, 4.3013°W)
Time: 01:16:30
(UTC+00:00)

Courier 1B - Pass Details

Date: 07 August 2021
Orbit: 963 x 1209 km, 28.3° (Epoch: 17 September)

Event Time Altitude Azimuth Distance (km) Brightness Sun altitude
Rises 18:54:35 0° 252° (WSW) 4,067 11.7 4.7°
Reaches altitude 10° 18:57:42 10° 243° (WSW) 3,123 10.9 4.1°
Maximum altitude 19:04:27 33° 183° (S) 1,917 9.0 2.9°
Drops below altitude 10° 19:11:13 10° 123° (ESE) 3,126 9.5 1.7°
Sets 19:14:21 0° 114° (ESE) 4,072 10.0 1.1°
